Chillicothe, MO

2:27 AM CDT on July 22, 2017 (GMT -0500)
Chillicothe

Weather History for KCDJ - December, 2012

Change the Weather History Date:

Wednesday, December 26, 2012

  Actual Average (KIRK) Record (KIRK)
Temperature  
Mean Temperature 18 °F -  
Max Temperature 26 °F 33 °F 63 °F (2008)
Min Temperature 10 °F 15 °F -19 °F (1962)
Degree Days  
Heating Degree Days 47    
Moisture  
Dew Point 10 °F    
Average Humidity 78    
Maximum Humidity 88    
Minimum Humidity 63    
Precipitation  
Precipitation 0.00 in - - ()
Sea Level Pressure  
Sea Level Pressure 30.29 in    
Wind  
Wind Speed 7 mph (NNW)    
Max Wind Speed 12 mph    
Max Gust Speed 18 mph    
Averages and records for this station are not official NWS values.
T = Trace of Precipitation, MM = Missing Value Source: NWS Daily Summary

Daily Weather History Graph

Daily Weather History Graph

Search for Another Location

Airport or City:

Trip Planner

Search our weather history database for the weather conditions in past years. The results will help you decide how hot, cold, wet, or windy it might be!

Date:

Astronomy

Dec. 26, 2012 Rise Set
Actual Time 7:34 AM CST 4:56 PM CST
Civil Twilight 7:03 AM CST 5:26 PM CST
Nautical Twilight 6:29 AM CST 6:00 PM CST
Astronomical Twilight 5:57 AM CST 6:33 PM CST
Moon 3:50 PM CST (12/26) 5:58 AM CST (12/26)
Length of Visible Light 10h 22m
Length of Day
9h 21m
Waxing Gibbous, 97% of the Moon is Illuminated
Dec 26
Waxing Gibbous
Dec 28
Full
Jan 4
Last Quarter
Jan 11
New
Jan 18
First Quarter

Hourly Weather History & Observations

Time (CST) Temp. Windchill Dew Point Humidity Pressure Visibility Wind Dir Wind Speed Gust Speed Precip Events Conditions
12:52 AM 12.0 °F 0.5 °F 7.0 °F 80% 30.32 in - North 8.1 mph - N/A   Unknown
1:52 AM 12.0 °F 1.5 °F 7.0 °F 80% 30.31 in - North 6.9 mph 17.3 mph N/A   Unknown
2:52 AM 12.0 °F -1.3 °F 7.0 °F 80% 30.30 in - North 10.4 mph 18.4 mph N/A   Unknown
3:52 AM 12.9 °F -0.9 °F 8.1 °F 81% 30.28 in - North 11.5 mph 18.4 mph N/A   Unknown
4:52 AM 12.9 °F -0.2 °F 7.0 °F 77% 30.29 in - North 10.4 mph 18.4 mph N/A   Unknown
5:52 AM 12.0 °F -1.3 °F 7.0 °F 80% 30.28 in - NNW 10.4 mph - N/A   Unknown
6:52 AM 12.0 °F 1.5 °F 6.1 °F 77% 30.29 in - NNW 6.9 mph - N/A   Unknown
7:52 AM 10.9 °F -0.8 °F 6.1 °F 81% 30.30 in - NNW 8.1 mph - N/A   Unknown
8:52 AM 12.0 °F 0.5 °F 6.1 °F 77% 30.30 in - NNW 8.1 mph - N/A   Unknown
9:52 AM 12.9 °F 3.8 °F 7.0 °F 77% 30.31 in - NNW 5.8 mph - N/A   Unknown
10:52 AM 16.0 °F 6.3 °F 8.1 °F 71% 30.31 in - NNW 6.9 mph - N/A   Unknown
11:52 AM 19.0 °F 10.0 °F 10.9 °F 71% 30.30 in - NNW 6.9 mph - N/A   Unknown
12:52 PM 21.9 °F 17.2 °F 12.9 °F 68% 30.27 in - Variable 3.5 mph - N/A   Unknown
1:52 PM 24.1 °F 18.2 °F 15.1 °F 69% 30.27 in - North 4.6 mph - N/A   Unknown
2:52 PM 26.1 °F 20.5 °F 15.1 °F 63% 30.26 in - Variable 4.6 mph - N/A   Unknown
3:52 PM 25.0 °F 19.3 °F 15.1 °F 66% 30.27 in - North 4.6 mph - N/A   Unknown
4:52 PM 23.0 °F 18.4 °F 15.1 °F 72% 30.27 in - North 3.5 mph - N/A   Unknown
5:52 PM 18.0 °F - 14.0 °F 84% 30.30 in - Calm Calm - N/A   Unknown
6:52 PM 17.1 °F - 14.0 °F 88% 30.31 in - Calm Calm - N/A   Unknown
7:52 PM 16.0 °F - 12.9 °F 88% 30.32 in - Calm Calm - N/A   Unknown
8:52 PM 18.0 °F - 14.0 °F 84% 30.29 in - Calm Calm - N/A   Unknown
9:52 PM 16.0 °F - 12.9 °F 88% 30.29 in - Calm Calm - N/A   Unknown
10:52 PM 16.0 °F 10.4 °F 10.9 °F 81% 30.28 in - NNW 3.5 mph - N/A   Unknown
11:52 PM 14.0 °F 6.5 °F 10.9 °F 88% 30.25 in - North 4.6 mph - N/A   Unknown